Location: Haliburton Scout Reserve
(45.0900°N, 78.3200°W)
Time: 16:42:27
(UTC-04:00)

SEEDS - Visible Passes

Search period start: 07 October 2024 00:00
Search period end: 17 October 2024 00:00
Orbit: 541 x 544 km, 97.7° (Epoch: 07 October)

Date Brightness Start Highest point End Pass type
(mag) Time Alt. Az. Time Alt. Az. Time Alt. Az.
07 Oct ? 04:18:35 10° NE 04:21:06 16° E 04:22:16 15° ESE visible
07 Oct ? 05:52:09 10° N 05:55:53 42° WNW 05:57:49 24° SW visible
08 Oct ? 04:12:20 10° ENE 04:14:23 14° E 04:15:23 13° ESE visible
08 Oct ? 05:45:25 10° N 05:49:14 50° WNW 05:50:55 29° SW visible
09 Oct ? 04:06:12 10° ENE 04:07:33 11° E 04:08:25 11° ESE visible
09 Oct ? 05:38:37 10° N 05:42:30 60° WNW 05:43:58 34° SW visible
10 Oct ? 05:31:46 10° N 05:35:41 73° WNW 05:36:54 42° SSW visible
11 Oct ? 05:24:50 10° NNE 05:28:47 87° W 05:29:47 49° SSW visible
12 Oct ? 05:17:51 10° NNE 05:21:48 77° ESE 05:22:33 55° S visible
12 Oct ? 06:54:59 10° NW 06:55:43 10° WNW 06:56:28 10° WNW visible
13 Oct ? 05:10:49 10° NNE 05:14:43 63° E 05:15:16 55° SE visible
13 Oct ? 06:47:07 10° NW 06:48:44 12° WNW 06:50:22 10° W visible
14 Oct ? 05:03:44 10° NNE 05:07:34 51° E 05:07:53 50° ESE visible
14 Oct ? 06:39:30 10° NNW 06:41:40 15° WNW 06:43:24 11° W visible
15 Oct ? 04:56:35 10° NNE 05:00:19 42° E 05:00:25 42° ESE visible
15 Oct ? 06:31:58 10° NNW 06:34:32 17° WNW 06:35:56 14° W visible
16 Oct ? 04:49:24 10° NNE 04:52:53 34° E 04:52:53 34° E visible
16 Oct ? 06:24:24 10° NNW 06:27:17 20° WNW 06:28:23 18° W visible
